Terug naar catalogus

COSMOS 2251 DEB

ActiefLEO
NORAD 34567·DEBRIS·🇷🇺 Russia

Gelanceerd Jun 16, 1993 vanaf Plesetsk Cosmodrome

Loading…

Volgende Passages (komende 24 uur)

TLE

VersSource: Space-Track

Epoch: Sep 14, 2026, 08:19 UTC

1 34567U 93036VD  26257.34721681  .00000188  00000-0  89869-4 0  9991
2 34567  74.0435  20.6324 0073457  27.3438   3.6023 14.24236004910482

Volg COSMOS 2251 DEB in realtime met AllMySat

Download on the App Store